TimeEDT,TemperatureF,Dew PointF,Humidity,Sea Level PressureIn,VisibilityMPH,Wind Direction,Wind SpeedMPH,Gust SpeedMPH,PrecipitationIn,Events,Conditions,WindDirDegrees,DateUTC
12:15 AM,62.6,60.8,94,30.08,4.0,Calm,Calm,-,N/A,,Clear,0,2013-08-20 04:15:00
12:35 AM,62.6,59.0,88,30.08,7.0,Calm,Calm,-,N/A,,Scattered Clouds,0,2013-08-20 04:35:00
12:55 AM,62.6,60.8,94,30.07,4.0,Calm,Calm,-,N/A,,Scattered Clouds,0,2013-08-20 04:55:00
1:15 AM,62.6,60.8,94,30.07,1.8,Calm,Calm,-,N/A,,Scattered Clouds,0,2013-08-20 05:15:00
1:35 AM,62.6,59.0,88,30.06,0.2,Calm,Calm,-,N/A,Fog,Fog,0,2013-08-20 05:35:00
1:55 AM,62.6,59.0,88,30.06,0.8,Calm,Calm,-,N/A,,Overcast,0,2013-08-20 05:55:00
2:15 AM,60.8,59.0,94,30.06,7.0,Calm,Calm,-,N/A,,Scattered Clouds,0,2013-08-20 06:15:00
2:35 AM,60.8,57.2,88,30.06,0.5,Calm,Calm,-,N/A,Fog,Fog,0,2013-08-20 06:35:00
2:55 AM,60.8,59.0,94,30.07,7.0,Calm,Calm,-,N/A,,Overcast,0,2013-08-20 06:55:00
3:15 AM,60.8,57.2,88,30.07,0.5,Calm,Calm,-,N/A,Fog,Fog,0,2013-08-20 07:15:00
3:35 AM,60.8,57.2,88,30.07,0.2,Calm,Calm,-,N/A,Fog,Fog,0,2013-08-20 07:35:00
3:55 AM,60.8,57.2,88,30.07,4.0,Calm,Calm,-,N/A,,Scattered Clouds,0,2013-08-20 07:55:00
4:15 AM,59.0,57.2,94,30.07,1.0,Calm,Calm,-,N/A,,Overcast,0,2013-08-20 08:15:00
4:35 AM,59.0,57.2,94,30.07,1.8,Calm,Calm,-,N/A,,Overcast,0,2013-08-20 08:35:00
4:55 AM,59.0,57.2,94,30.07,0.2,Calm,Calm,-,N/A,Fog,Fog,0,2013-08-20 08:55:00
5:15 AM,59.0,57.2,94,30.08,0.2,Calm,Calm,-,N/A,Fog,Fog,0,2013-08-20 09:15:00
5:35 AM,59.0,57.2,94,30.08,0.2,Calm,Calm,-,N/A,Fog,Fog,0,2013-08-20 09:35:00
5:55 AM,59.0,57.2,94,30.09,0.8,Calm,Calm,-,N/A,,Overcast,0,2013-08-20 09:55:00
6:15 AM,59.0,57.2,94,30.09,0.8,Calm,Calm,-,N/A,,Overcast,0,2013-08-20 10:15:00
6:35 AM,59.0,57.2,94,30.10,0.2,Calm,Calm,-,N/A,Fog,Fog,0,2013-08-20 10:35:00
6:45 AM,57.2,57.2,100,30.10,3.0,Calm,Calm,-,N/A,Fog,Clear,0,2013-08-20 10:45:00
7:45 AM,62.6,62.6,100,30.12,4.0,Calm,Calm,-,N/A,Fog,Haze,0,2013-08-20 11:45:00
8:45 AM,69.8,66.2,88,30.13,10.0,Calm,Calm,-,N/A,,Clear,0,2013-08-20 12:45:00
9:45 AM,77.0,68.0,74,30.14,10.0,Calm,Calm,-,N/A,,Clear,0,2013-08-20 13:45:00
10:45 AM,80.6,66.2,61,30.14,10.0,NW,4.6,-,N/A,,Clear,320,2013-08-20 14:45:00
11:45 AM,80.6,64.4,58,30.13,10.0,NNE,4.6,-,N/A,,Partly Cloudy,30,2013-08-20 15:45:00
12:45 PM,82.4,62.6,51,30.12,10.0,WNW,4.6,-,N/A,,Partly Cloudy,300,2013-08-20 16:45:00
1:45 PM,84.2,60.8,45,30.11,10.0,NW,5.8,-,N/A,,Partly Cloudy,310,2013-08-20 17:45:00
2:45 PM,84.2,62.6,48,30.10,10.0,WNW,5.8,-,N/A,,Mostly Cloudy,300,2013-08-20 18:45:00
4:45 PM,84.2,62.6,48,30.08,10.0,NW,9.2,-,N/A,,Mostly Cloudy,310,2013-08-20 20:45:00
5:45 PM,84.2,64.4,51,30.09,10.0,WNW,3.5,-,N/A,,Scattered Clouds,290,2013-08-20 21:45:00
6:45 PM,82.4,62.6,51,30.09,10.0,West,5.8,-,N/A,,Scattered Clouds,270,2013-08-20 22:45:00
7:45 PM,75.2,66.2,73,30.10,10.0,Calm,Calm,-,N/A,,Mostly Cloudy,0,2013-08-20 23:45:00
8:45 PM,71.6,66.2,83,30.11,7.0,Calm,Calm,-,N/A,,Mostly Cloudy,0,2013-08-21 00:45:00
9:45 PM,69.8,66.2,88,30.13,7.0,Calm,Calm,-,N/A,,Mostly Cloudy,0,2013-08-21 01:45:00
10:55 PM,69.8,66.2,88,30.13,10.0,Calm,Calm,-,N/A,,Clear,0,2013-08-21 02:55:00
11:15 PM,68.0,64.4,88,30.13,7.0,Calm,Calm,-,N/A,,Clear,0,2013-08-21 03:15:00
11:35 PM,68.0,64.4,88,30.13,5.0,Calm,Calm,-,N/A,,Clear,0,2013-08-21 03:35:00
11:55 PM,66.2,62.6,88,30.14,2.0,Calm,Calm,-,N/A,,Clear,0,2013-08-21 03:55:00